Regional Weather Roundup
Issued by NWS Charleston, SC

Current Version | Previous Version | Text Only | Print | Product List | Glossary Off
Versions: 1 2 3 4 5 6 7 8 9 10 11 12 13 14 15 16 17 18 19 20 21 22 23 24 25 26 27 28 29 30 31 32 33 34 35 36 37 38 39 40 41 42 43 44 45 46 47 48 49 50

000
ASUS42 KCHS 210727
RWRCHS

Regional Weather Roundup
National Weather Service Charleston SC
300 AM EDT MON MAY 21 2018

NOTE: "fair" indicates few or no clouds below 12,000 feet with no
significant weather and/or obstructions to visibility.

Not all stations are quality controlled. Use data with caution,
especially dewpoint observations.

SCZ027-030-031-034>040-042>050-210800-
...Southeast South Carolina...

CITY           SKY/WX    TMP DP  RH WIND       PRES   REMARKS
N Charleston   MOCLDY    71  70  96 S3        30.13F
Waterfront Prk   N/A     74  72  93 VRB2      29.98F
Mount Pleasant FAIR      70  70 100 CALM      30.14S
Johns Island   FAIR      70  70 100 CALM      30.14S
Pinopolis        N/A     73  70  88 VRB3      30.06S
Moncks Corner  PTSUNNY   68  66  94 CALM      30.13F
Summerville    FAIR      68  68 100 CALM      30.14F
Beaufort MCAS  FAIR      68  68 100 CALM      30.13F
Beaufort Arpt  FAIR      70  70 100 CALM      30.13F
Hilton Head Is FAIR      70  68  94 CALM      30.15S
Walterboro     FAIR      68  68 100 CALM      30.14F
Allendale      FOG       70  70 100 CALM      30.12F VSB 1/4

...Southern Midlands and Pee Dee...

CITY           SKY/WX    TMP DP  RH WIND       PRES   REMARKS
Georgetown     FAIR     N/A N/A N/A CALM      30.15S
Kingstree      FAIR      70  68  94 CALM      30.14S
Orangeburg     MOCLDY    71  69  93 SW5       30.13F
Barnwell       FAIR      70  68  94 CALM      30.12F
Aiken          CLOUDY    68  68 100 CALM      30.16F
Manning        FAIR      68  68 100 CALM      30.13F
Columbia       MOCLDY    73  70  90 W5        30.12F
Sumter         CLOUDY    71  69  92 W6        30.12R
Florence       FAIR      72  70  93 CALM      30.13S
Myrtle Beach   FAIR      72  71  97 CALM      30.15S
N Myrtle Beach FAIR      73  71  93 SW5       30.13F

$$

GAZ063-065-086>088-099>101-113>116-118-119-134>141-150-210800-
...Southeast Georgia...

CITY           SKY/WX    TMP DP  RH WIND       PRES   REMARKS
Savannah Arpt  FAIR      69  68  96 CALM      30.14F
Hunter AAF     CLEAR     70  68  94 CALM      30.11F FOG
Fort Stewart   CLOUDY    70  70 100 CALM      30.12F
Statesboro     CLOUDY    67  67  98 S3        30.13F
Sylvania       PTSUNNY   69  69 100 CALM      30.14F
Claxton        FOG       71  70  98 CALM      30.13F VSB 1/4

...CSRA, Central and far Southeast Georgia...

CITY           SKY/WX    TMP DP  RH WIND       PRES   REMARKS
Thomson        CLOUDY    67  66  97 CALM      30.18F
Augusta-Bush   FAIR      66  65  96 CALM      30.11F FOG
Augusta-Daniel MOCLDY    71  64  78 CALM      30.13F
Swainsboro     FAIR      66  64  94 CALM      30.14F
Vidalia        FAIR      70  64  83 E3        30.13F
Eastman        CLOUDY    69  62  76 CALM      30.15F
Hazlehurst       N/A     70  67  90 E3        30.12S
Alma           LGT RAIN  71  69  93 E3        30.12F
Waycross       FAIR      71  68  90 E5        30.11F
Jesup          NOT AVBL
Baxley         CLOUDY    68  68 100 E3        30.12F FOG
Brunswick      FAIR      73  70  88 E3        30.12F
Saint Simons   FAIR      75  73  93 E7        30.12S

$$

SCZ027-028-034-036>038-045-046-048>050-GAZ119-141-210800-
...Lake and Supplemental Coastal Observations...

STATION/POSITION TIME  TEMP    WIND        PRES    WAVE   SWELL
                       AIR SEA DIR/SP/G            HT/PER HT/PER/DIR
                 (UTC) (F)     (DEG/KT/KT) (MB)    (FT/S) (FT/S/D)
Winyah Bay       0645   74     220/  5     1021.0S
Lake Murray      0620   73     290/  3/  8 1019.6
ACE Basin NERRS  0630   70        CALM     1021.0S
Fort Pulaski     0654   74 78  150/  2/  3 1020.8F
Sapelo Island    0700   74     110/  5     1020.0

$$

ANZ835-935-AMZ111-154-330-350-352-354-370-450-454-472-210800-
...C-MAN and Buoy Observations...

STATION/POSITION TIME  TEMP    WIND        PRES    WAVE   SWELL
                       AIR SEA DIR/SP/G            HT/PER HT/PER/DIR
                 (UTC) (F)     (DEG/KT/KT) (MB)    (FT/S) (FT/S/D)
Buoy 41004       0700      74  150/  2/  4 1020.5
Buoy 41008       0650   74 75  110/  8/ 10 1019.7F   3/10   3/120/10
Folly Beach CMAN 0700   74     180/  5/  6 1021.2F
Capers Nearshore 0708   75 76  180/  8/ 12 1021.0F
Fripp Nearshore  0708   74 77  140/  4/  6 1020.1F


STATION/POSITION TIME  TEMP    WIND        PRES    WAVE   SWELL
                       AIR SEA DIR/SP/G            HT/PER HT/PER/DIR
                 (UTC) (F)     (DEG/KT/KT) (MB)    (FT/S) (FT/S/D)
5E St. Marys GA  0700      74                N/A     3/10
Frying Pan Buoy  0710   75 75  210/  8/ 10 1020.6
Buoy 41025       0710   75 74  230/ 14/ 17 1020.1
Cape Lookout NC  0700          230/  8/ 12 1020.4F
Buoy 41002       0710      77  170/ 12/ 14 1021.5
Buoy 41010       0710   77 78  120/ 16/ 17 1019.8
St Augustine FL  0700   76 76  120/ 10/ 12 1019.0F


$$




USA.gov is the U.S. government's official web portal to all federal, state and local government web resources and services.